Preview of NWS' New Version of Forecast
This preview is not operational and should not be used for support decisions.

Regional Weather Roundup (RWR)

Issued by Philadelphia/Mt Holly (PHI)

                            
000
ASUS41 KPHI 181612
RWRPHI

REGIONAL WEATHER ROUNDUP
NATIONAL WEATHER SERVICE MOUNT HOLLY NJ
1200 PM EDT WED SEP 18 2019

NOTE:  "FAIR" INDICATES FEW OR NO CLOUDS BELOW 12,000 FEET WITH NO
SIGNIFICANT WEATHER AND/OR OBSTRUCTIONS TO VISIBILITY.

 * = STATION DOES NOT REPORT PRECIPITATION (E.G. RAIN, SNOW, ETC.) 
        OR FOG.

NJZ015>026-181700-
SOUTHERN NEW JERSEY
  
CITY           SKY/WX    TMP DP  RH WIND       PRES   REMARKS
POMONA         CLOUDY    70  54  56 E17G26    30.21R                  
WILDWOOD*      CLOUDY    69  53  56 NE14G28   30.20S                  
MILLVILLE      FAIR      70  50  49 NE9       30.21S                  
WRIGHTSTOWN    MOSUNNY   70  52  52 E12       30.23R                  
MOUNT HOLLY    PTSUNNY   69  51  52 VRB5      30.22F                  
TRENTON        PTSUNNY   69  52  54 NE7       30.23S                  

$$
NJZ001>014-181700-
NORTHERN NEW JERSEY
  
CITY           SKY/WX    TMP DP  RH WIND       PRES   REMARKS
SUSSEX         FAIR      67  50  54 E14G20    30.26F                  
ANDOVER*         N/A     65  50  58 VRB6      30.26F                  
MORRISTOWN     CLOUDY    68  52  56 E10       30.26S                  
NEWARK         PTSUNNY   66  49  54 NE10      30.24F                  
TETERBORO      PTSUNNY   67  50  54 N5        30.24F                  
CALDWELL       FAIR      68  50  52 E9        30.26S                  
SOMERVILLE     FAIR      69  48  47 NE6       30.23F                  
ALLAIRE*       CLOUDY    66  53  63 E14G21    30.24S                  
TOMS RIVER*    PTSUNNY   67  53  61 NE15G21   30.24R                  

$$
PAZ043-044-047-054-055-060>062-066>071-181700-
EASTERN PENNSYLVANIA
  
CITY           SKY/WX    TMP DP  RH WIND       PRES   REMARKS
PHILADELPHIA   PTSUNNY   74  51  44 N8        30.23S                  
NORTH PHILA    FAIR      70  52  52 NE8       30.24F                  
BLUE BELL*     PTSUNNY   70  54  56 NE5       30.24F                  
DOYLESTOWN     PTSUNNY   70  52  52 VRB7      30.23F                  
QUAKERTOWN*    SUNNY     68  54  60 NE6       30.25F                  
PERKASIE*      FAIR      66  54  63 NE8       30.25F                  
POTTSTOWN      PTSUNNY   64  53  67 NE7       30.26S                  
LANCASTER      FAIR      72  51  47 NE9       30.24S                  
COATESVILLE    FAIR      66  54  63 VRB3G14   30.25S                  
WEST CHESTER   PTSUNNY   68  52  56 N6        30.24S                  
READING        FAIR      69  54  58 VRB3      30.23F                  
ALLENTOWN      FAIR      68  50  52 N7        30.25F                  
QN CITY/ALNTWN FAIR      68  52  56 NE10      30.26F                  
MOUNT POCONO   FAIR      61  46  57 NE8       30.26F                  
HAZLETON       FAIR      64  46  52 N5        30.29S                  
LEHIGHTON      FAIR      68  46  45 E7        30.26F                  
WILKES BARRE   FAIR      69  43  38 NE9       30.26F                  

$$
DEZALL-MDZ008-012-015-019-020-181700-
DELAWARE AND EASTERN MARYLAND
  
CITY           SKY/WX    TMP DP  RH WIND       PRES   REMARKS
WILMINGTON     FAIR      73  54  51 NE9       30.23S                  
DOVER          FAIR      71  54  54 NE13      30.21S                  
CHESWOLD       MOSUNNY   72  55  56 E10       30.21S                  
GEORGETOWN     FAIR      71  58  63 E12       30.20S                  
EASTON         PTSUNNY   75  54  46 N12       30.24S                  
STEVENSVILLE   FAIR      73  54  49 E5        30.21S                  
ABERDEEN       MOSUNNY   72  54  53 E7        30.22S                  
PATUXENT       PTSUNNY   76  52  43 N8        30.19                   
OCEAN CITY     CLOUDY    71  55  56 NE14G21   30.18S                  
WALLOPS ISLAND CLOUDY    69  55  60 NE17G24   30.18S                  
CAMBRIDGE      PTSUNNY   72  54  53 NE9       30.19F                  
SALISBURY      CLOUDY    69  54  58 NE13      30.19R                  

$$
PAZ001-021-NYZ056-072-MDZ011-DCZ001-181700-
OTHER NEARBY LOCATIONS
  
CITY           SKY/WX    TMP DP  RH WIND       PRES   REMARKS
HARRISBURG     FAIR      72  45  37 E8        30.23F                  
STATE COLLEGE  SUNNY     64  52  63 NE6       30.28S                  
WILLIAMSPORT   FAIR      68  47  46 VRB7      30.25F                  
BINGHAMTON     FAIR      62  43  49 NE9       30.29F                  
NEW YORK CITY  PTSUNNY   66  51  58 NE8       30.27                   
BALTIMORE      FAIR      75  53  46 E9        30.21S                  
WASHINGTON DC  FAIR      75  51  43 NE8       30.21F                  

$$